Location: Sobotiste
(48.7170°N, 17.4000°E)
Time: 22:09:19
(UTC+02:00)

SEEDS - Pass Details

Date: 14 March 2026
Orbit: 470 x 477 km, 97.8° (Epoch: 21 April)

Event Time Altitude Azimuth Distance (km) Brightness Sun altitude
Rises 04:08:02 0° 32° (NNE) 2,560 ? -20.0°
Reaches altitude 10° 04:11:03 10° 60° (ENE) 1,670 ? -19.5°
Maximum altitude 04:12:51 13° 90° (E) 1,467 ? -19.3°
Drops below altitude 10° 04:14:39 10° 121° (ESE) 1,659 ? -19.0°
Sets 04:17:37 0° 149° (SSE) 2,528 ? -18.5°
